STARLINK-35076

Last updated on Tue Sep 16 2025 00:02:08 GMT+0000 (Coordinated Universal Time)

1 65457U 25194Z 25257.76245469 .00246988 00000+0 13820-2 0 9994 2 65457 97.5987 109.0793 0000800 85.9054 274.2303 15.78658366 3056
UTC large
Height (km)
Speed (km/s)
/
Latitude / Longitude
Inclination (degrees)
Orbital Period (minutes)
Azimuth
Elevation
Range (km)
Doppler Factor

Next 0 passes for location: London (51.5072 / 0.1276)

Sorry there are no passes over London.